Location: Kalberh�ni
(46.4610°N, 7.2453°E)
Time: 07:57:55
(UTC+00:00)

deb Kosmos-2227 - Pass Details

Date: 19 August 2022
Orbit: 774 x 865 km, 70.9° (Epoch: 26 September)

Event Time Altitude Azimuth Distance (km) Brightness Sun altitude
Rises 23:58:51 0° 320° (NW) 3,366 ? -30.4°
Reaches altitude 10° 00:01:55 10° 303° (WNW) 2,445 ? -30.4°
Enters shadow 00:03:54 16° 284° (WNW) 2,038 ? -30.3°
